Location: Ertinghausen
(51.6624°N, 9.7874°E)
Time: 12:16:00
(UTC+00:00)

Cosmos 839 Rocket - Pass Details

Date: 23 May 2024
Orbit: 965 x 2088 km, 65.9° (Epoch: 18 June)

Event Time Altitude Azimuth Distance (km) Brightness Sun altitude
Rises 01:15:22 0° 318° (NW) 4,436 7.7 -13.2°
Reaches altitude 10° 01:18:30 10° 320° (NW) 3,302 7.0 -13.0°
Maximum altitude 01:26:11 79° 47° (NE) 1,121 4.4 -12.4°
Drops below altitude 10° 01:32:32 10° 135° (SE) 2,758 6.2 -11.9°
Sets 01:34:56 0° 137° (SE) 3,663 6.9 -11.7°
